Flight Track Log - Related Links

Times and Time Zones

All times are in EDT time to prevent confusion due to time zone crossing. See the AAY805 flight status page for this flight to view local times or setup timezone preferences in your user account.


Time Position Orientation Groundspeed Altitude Reporting Facility
EDT Latitude Longitude Course Direction KTS MPH feet Rate Location/Type
Thu 09:21:29 AM 34.9489 -85.2297 158° South 206 237 4,300  Level Atlanta Center
Thu 09:22:29 AM 34.8778 -85.2414 188° South 249 287 7,000 2,700 Climbing Atlanta Center
Thu 09:23:29 AM 34.8006 -85.2506 186° South 267 307 9,700 1,950 Climbing Atlanta Center
Thu 09:24:29 AM 34.7281 -85.2014 151° Southeast 273 314 10,900 2,106 Climbing Atlanta Center
Thu 09:26:00 AM 34.4454 -84.8643 158° South  Level FlightAware Approximate
Thu 09:30:05 AM 34.1391 -84.7869 150° Southeast 425 489 23,600  Level FlightAware ADS-B
Thu 09:30:45 AM 34.0690 -84.7382 150° Southeast 428 493 24,900 1,859 Climbing FlightAware ADS-B
Thu 09:31:16 AM 34.0164 -84.7018 150° Southeast 430 495 25,800 981 Climbing FlightAware ADS-B
Thu 09:32:29 AM 33.9617 -84.6700 150° Southeast 431 496 26,600 992 Climbing Atlanta Center
Thu 09:33:29 AM 33.8469 -84.6492 171° South 415 478 28,000 1,150 Climbing Atlanta Center
Thu 09:34:29 AM 33.7386 -84.6383 175° South 422 486 28,900 1,050 Climbing Atlanta Center
Thu 09:35:29 AM 33.6156 -84.6250 175° South 436 502 30,100 1,350 Climbing Atlanta Center
Thu 09:36:29 AM 33.4714 -84.6167 177° South 470 541 31,600 1,400 Climbing Atlanta Center
Thu 09:37:29 AM 33.3464 -84.6058 176° South 456 525 32,900 1,300 Climbing Atlanta Center
Thu 09:38:29 AM 33.2211 -84.5950 176° South 456 525 34,200 1,100 Climbing Atlanta Center
Thu 09:39:29 AM 33.0939 -84.5842 176° South 456 525 35,100 850 Climbing Atlanta Center
Thu 09:40:29 AM 32.9833 -84.5761 177° South 456 525 35,900 850 Climbing Atlanta Center
Thu 09:41:29 AM 32.8581 -84.5631 175° South 456 525 36,800 550 Climbing Atlanta Center
Thu 09:42:29 AM 32.7328 -84.5525 176° South 453 521 37,000 100 Climbing Atlanta Center
Thu 09:43:29 AM 32.6097 -84.5444 177° South 453 521 37,000  Level Atlanta Center
Thu 09:44:29 AM 32.4867 -84.5339 176° South 448 516 37,000  Level Atlanta Center
Thu 09:45:29 AM 32.3614 -84.5233 176° South 448 516 37,000  Level Atlanta Center
Thu 09:47:21 AM 32.1314 -84.5019 175° South 444 511 37,000  Level Jacksonville Center
Thu 09:48:21 AM 32.0061 -84.4925 176° South 444 511 37,000  Level Jacksonville Center
Thu 09:49:21 AM 31.8853 -84.4831 176° South 444 511 37,000  Level Jacksonville Center
Thu 09:50:21 AM 31.7600 -84.4711 175° South 444 511 37,000  Level Jacksonville Center
Thu 09:51:21 AM 31.6475 -84.4617 176° South 444 511 37,000  Level Jacksonville Center
Thu 09:55:57 AM 31.0507 -84.4133 176° South 448 516 37,000  Level FlightAware ADS-B
Thu 09:56:41 AM 30.9584 -84.4058 176° South 448 516 37,000  Level FlightAware ADS-B
Thu 09:57:12 AM 30.8937 -84.4006 176° South 448 516 37,000  Level FlightAware ADS-B
Thu 09:57:43 AM 30.8343 -84.3959 176° South 448 516 37,000  Level FlightAware ADS-B
Thu 09:58:16 AM 30.7610 -84.3900 176° South 448 516 37,000  Level FlightAware ADS-B
Thu 09:58:47 AM 30.7124 -84.3860 176° South 448 516 37,000  Level FlightAware ADS-B (KONZ)
Thu 09:59:26 AM 30.6169 -84.3784 176° South 449 517 37,000  Level FlightAware ADS-B
Thu 09:59:55 AM 30.5599 -84.3699 163° South 455 524 37,000  Level FlightAware ADS-B
Thu 10:00:07 AM 30.5324 -84.3579 155° Southeast 460 529 37,000 140 Level FlightAware ADS-B (KONZ)
Thu 10:00:38 AM 30.4756 -84.3203 150° Southeast 460 529 37,100  Climbing FlightAware ADS-B (KONZ)
Thu 10:01:15 AM 30.4073 -84.2755 151° Southeast 457 526 37,000 -90 Descending FlightAware ADS-B
Thu 10:01:45 AM 30.3517 -84.2393 151° Southeast 457 526 37,000  Level FlightAware ADS-B
Thu 10:02:15 AM 30.2970 -84.2037 151° Southeast 456 525 37,000  Level FlightAware ADS-B
Thu 10:02:48 AM 30.2351 -84.1632 151° Southeast 456 525 37,000  Level FlightAware ADS-B (KONZ)
Thu 10:03:47 AM 30.1634 -84.1165 151° Southeast 459 528 37,000  Level FlightAware ADS-B (KONZ)
Thu 10:04:22 AM 30.0615 -84.0502 151° Southeast 459 528 37,000  Level FlightAware ADS-B (KONZ)
Thu 10:05:21 AM 29.9694 -83.9906 151° Southeast 457 526 37,000  Level Jacksonville Center
Thu 10:06:21 AM 29.8572 -83.9200 151° Southeast 457 526 37,000 -200 Level Jacksonville Center
Thu 10:07:21 AM 29.7472 -83.8494 151° Southeast 457 526 36,600 -800 Descending Jacksonville Center
Thu 10:08:21 AM 29.6350 -83.7792 151° Southeast 457 526 35,400 -1,650 Descending Jacksonville Center
Thu 10:09:21 AM 29.5206 -83.7064 151° Southeast 457 526 33,300 -2,200 Descending Jacksonville Center
Thu 10:10:21 AM 29.4147 -83.6364 150° Southeast 457 526 31,000 -2,200 Descending Jacksonville Center
Thu 10:11:21 AM 29.3106 -83.5667 150° Southeast 447 514 28,900 -2,000 Descending Jacksonville Center
Thu 10:12:21 AM 29.2044 -83.5017 152° Southeast 442 509 27,000 -1,050 Descending Jacksonville Center
Thu 10:13:21 AM 29.1067 -83.4369 150° Southeast 424 488 26,800 -1,500 Descending Jacksonville Center
Thu 10:14:21 AM 29.0047 -83.3744 152° Southeast 413 475 24,000 -2,600 Descending Jacksonville Center
Thu 10:15:21 AM 28.9069 -83.3100 150° Southeast 413 475 21,600 -2,050 Descending Jacksonville Center
Thu 10:16:21 AM 28.8131 -83.2503 151° Southeast 407 468 19,900 -1,649 Descending Jacksonville Center
Thu 10:18:12 AM 28.6333 -83.1500 154° Southeast 354 407 16,900 -1,695 Descending Tampa TRACON
Thu 10:19:18 AM 28.5500 -83.0833 145° Southeast 343 395 14,900 -1,619 Descending Tampa TRACON
Thu 10:20:18 AM 28.4667 -83.0333 152° Southeast 328 377 13,500 -1,250 Descending Tampa TRACON
Thu 10:21:18 AM 28.3833 -83.0167 170° South 297 342 12,400 -1,400 Descending Tampa TRACON
Thu 10:22:18 AM 28.3167 -82.9833 156° South 290 334 10,700 -1,650 Descending Tampa TRACON
Thu 10:23:18 AM 28.2333 -82.9500 161° South 290 334 9,100 -1,600 Descending Tampa TRACON
Thu 10:24:18 AM 28.1500 -82.9333 170° South 285 328 7,500 -1,550 Descending Tampa TRACON
Thu 10:25:18 AM 28.0833 -82.9000 156° South 275 316 6,000 -1,450 Descending Tampa TRACON
Thu 10:26:18 AM 28.0167 -82.8833 168° South 268 308 4,600 -1,041 Descending Tampa TRACON
Thu 10:27:19 AM 27.9333 -82.8667 170° South 262 302 3,900 -762 Descending Tampa TRACON
Thu 10:28:24 AM 27.8667 -82.8333 156° South 242 278 3,000 -450 Descending Tampa TRACON
Thu 10:29:19 AM 27.8167 -82.8167 164° South 188 216 3,000  Level Tampa TRACON
Thu 10:30:19 AM 27.8000 -82.7833 119° Southeast 182 209 3,000 -400 Level Tampa TRACON
Thu 10:31:19 AM 27.8167 -82.7167 74° East 178 205 2,200 -850 Descending Tampa TRACON
Thu 10:32:19 AM 27.8333 -82.6833 61° Northeast 142 163 1,300 -850 Descending Tampa TRACON
Thu 10:33:19 AM 27.8833 -82.6833 360° North 132 152 500 -800 Descending Tampa TRACON
Thu 10:35:00 AM 27.9000 -82.6833 North  Level FlightAware Approximate

Login

Don't have an account? Register now (free) for customized features, flight alerts, and more!